GW6014 Weather Reports


time (UTC)temp
C
wind
direction
speed
KPH
gust
KPH
rain 1hr
cm
rain 24hr
cm
rain mn
cm
humidity
%
barometer
mb
20260504150716 21 245 9.7 20.9 0.00 0.00 0.00 51 1008.6
20260504150213 21 282 9.7 17.7 0.00 0.00 0.00 53 1008.4
20260504141142 20 204 8.0 11.3 0.00 0.00 0.00 61 1008.7
20260504140639 20 231 14.5 17.7 0.00 0.00 0.00 61 1008.6
20260504140134 19 252 11.3 14.5 0.00 0.00 0.00 63 1008.8
20260504130602 16 227 11.3 20.9 0.00 0.00 0.00 72 1009.1
20260504110450 14 217 0.0 3.2 0.00 0.00 0.00 77 1009.5
20260504100412 14 350 1.6 4.8 0.00 0.00 0.00 76 1009.1
20260504081806 15 338 0.0 3.2 0.00 0.00 0.00 79 1009.7
20260504081302 14 44 1.6 4.8 0.00 0.00 0.00 80 1009.5
20260504080758 14 326 1.6 3.2 0.00 0.00 0.00 82 1009.9
20260504080255 14 130 1.6 3.2 0.00 0.00 0.00 82 1009.8
20260504070223 14 32 1.6 1.6 0.00 0.00 0.00 80 1010.4
20260504060143 16 63 12.9 22.5 0.00 0.00 0.00 62 1011.4
20260504050611 17 187 9.7 12.9 0.00 0.00 0.00 59 1009.3
20260504050108 17 250 3.2 4.8 0.00 0.00 0.00 61 1009.7
20260504045605 17 213 1.6 3.2 0.00 0.00 0.00 60 1009.7
20260504045100 17 329 3.2 12.9 0.00 0.00 0.00 58 1009.2
20260504044558 16 205 12.9 14.5 0.00 0.00 0.00 59 1009.0
20260504044054 16 123 1.6 9.7 0.00 0.00 0.00 62 1009.1
20260504043552 17 316 1.6 1.6 0.00 0.00 0.00 61 1009.1
20260504043049 17 164 1.6 4.8 0.00 0.00 0.00 59 1009.4
20260504042546 17 229 4.8 14.5 0.00 0.00 0.00 58 1009.9
20260504042043 17 224 9.7 14.5 0.00 0.00 0.00 58 1010.1
20260504041539 16 233 8.0 12.9 0.00 0.00 0.00 58 1010.1
20260504041035 16 231 4.8 6.4 0.00 0.00 0.00 59 1010.2
20260504040533 17 202 6.4 9.7 0.00 0.00 0.00 58 1010.1
20260504040029 17 234 9.7 12.9 0.00 0.00 0.00 57 1010.4
20260504035526 17 215 11.3 14.5 0.00 0.00 0.00 56 1010.4
20260504035022 17 210 9.7 12.9 0.00 0.00 0.00 56 1010.3
20260504034520 17 204 6.4 9.7 0.00 0.00 0.00 56 1010.2
20260504034017 17 203 4.8 6.4 0.00 0.00 0.00 56 1010.5
20260504033515 17 226 3.2 4.8 0.00 0.00 0.00 56 1010.6
20260504033012 17 197 3.2 4.8 0.00 0.00 0.00 57 1010.5
20260504032509 17 300 1.6 4.8 0.00 0.00 0.00 57 1010.6
20260504032005 17 230 3.2 4.8 0.00 0.00 0.00 56 1010.6
20260504031502 17 231 0.0 1.6 0.00 0.00 0.00 58 1010.4
20260504030959 17 204 3.2 4.8 0.00 0.00 0.00 56 1010.5
20260504030456 17 237 3.2 4.8 0.00 0.00 0.00 56 1010.6
20260504025952 17 229 4.8 6.4 0.00 0.00 0.00 55 1010.6
20260504025449 17 231 6.4 6.4 0.00 0.00 0.00 54 1010.7
20260504024946 17 231 6.4 9.7 0.00 0.00 0.00 54 1010.4
20260504024443 18 228 4.8 14.5 0.00 0.00 0.00 53 1010.4
20260504023940 18 227 9.7 11.3 0.00 0.00 0.00 52 1010.4
20260504023436 18 229 6.4 14.5 0.00 0.00 0.00 52 1010.4
20260504022932 18 209 12.9 14.5 0.00 0.00 0.00 52 1010.3
20260504022429 18 209 6.4 12.9 0.00 0.00 0.00 52 1010.5
20260504021925 18 243 6.4 9.7 0.00 0.00 0.00 53 1010.6
20260504021423 18 229 6.4 6.4 0.00 0.00 0.00 53 1010.4
20260504020920 18 238 6.4 11.3 0.00 0.00 0.00 52 1010.4
20260504020416 18 246 4.8 6.4 0.00 0.00 0.00 51 1010.2
20260504015913 18 200 6.4 9.7 0.00 0.00 0.00 50 1010.2
20260504015409 19 247 8.0 11.3 0.00 0.00 0.00 49 1010.2
20260504014905 19 237 3.2 12.9 0.00 0.00 0.00 48 1010.2
20260504014401 19 215 9.7 14.5 0.00 0.00 0.00 47 1010.2
20260504013858 19 213 8.0 11.3 0.00 0.00 0.00 47 1009.9
20260504013357 19 108 3.2 9.7 0.00 0.00 0.00 47 1010.3
20260504012853 19 238 14.5 17.7 0.00 0.00 0.00 47 1009.8
20260504012351 19 180 9.7 16.1 0.00 0.00 0.00 48 1009.8
20260504011848 19 219 12.9 14.5 0.00 0.00 0.00 48 1009.9
20260504011344 19 213 6.4 9.7 0.00 0.00 0.00 49 1010.0
20260504010840 19 173 4.8 6.4 0.00 0.00 0.00 50 1009.8
20260504010336 19 131 3.2 6.4 0.00 0.00 0.00 51 1009.9
20260504005833 20 224 3.2 4.8 0.00 0.00 0.00 50 1009.9
20260504005330 20 231 3.2 4.8 0.00 0.00 0.00 48 1009.8
20260504004827 21 210 3.2 4.8 0.00 0.00 0.00 44 1009.9
20260504004325 21 205 6.4 11.3 0.00 0.00 0.00 42 1010.0
20260504003821 21 216 9.7 12.9 0.00 0.00 0.00 41 1009.9
20260504003318 21 230 4.8 11.3 0.00 0.00 0.00 42 1009.8
20260504002815 21 266 6.4 14.5 0.00 0.00 0.00 41 1010.0
20260504002312 21 229 9.7 14.5 0.00 0.00 0.00 40 1009.9
20260504001809 21 189 12.9 16.1 0.00 0.00 0.00 40 1010.0
20260504001306 21 255 8.0 11.3 0.00 0.00 0.00 41 1010.0
20260504000803 22 197 14.5 17.7 0.00 0.00 0.00 39 1010.0
20260504000300 22 223 8.0 17.7 0.00 0.00 0.00 39 1009.9
20260503235758 22 250 12.9 16.1 0.00 0.00 0.00 39 1009.9
20260503235255 22 277 11.3 16.1 0.00 0.00 0.00 38 1010.1
20260503234753 22 224 6.4 20.9 0.00 0.00 0.00 38 1010.2
20260503234250 22 248 6.4 17.7 0.00 0.00 0.00 39 1010.2
20260503233747 22 234 12.9 16.1 0.00 0.00 0.00 37 1010.3
20260503233243 22 209 17.7 22.5 0.00 0.00 0.00 37 1010.3
20260503232740 23 207 8.0 12.9 0.00 0.00 0.00 38 1010.2
20260503232237 23 240 14.5 16.1 0.00 0.00 0.00 36 1010.1
20260503231736 23 233 16.1 20.9 0.00 0.00 0.00 36 1010.3
20260503231232 23 246 14.5 22.5 0.00 0.00 0.00 36 1010.3
20260503230728 23 202 16.1 22.5 0.00 0.00 0.00 36 1010.4
20260503230226 23 198 12.9 17.7 0.00 0.00 0.00 36 1010.5
20260503225723 23 195 11.3 17.7 0.00 0.00 0.00 37 1010.5
20260503225223 23 246 14.5 17.7 0.00 0.00 0.00 37 1010.6
20260503224720 23 250 6.4 22.5 0.00 0.00 0.00 38 1010.6
20260503224218 23 238 11.3 17.7 0.00 0.00 0.00 36 1010.6
20260503223715 23 220 14.5 20.9 0.00 0.00 0.00 36 1010.7
20260503223213 23 221 17.7 24.1 0.00 0.00 0.00 35 1010.8
20260503222709 23 199 17.7 22.5 0.00 0.00 0.00 35 1010.8
20260503222207 23 249 9.7 22.5 0.00 0.00 0.00 37 1010.9
20260503221705 23 257 22.5 25.7 0.00 0.00 0.00 36 1010.9
20260503221203 23 204 14.5 29.0 0.00 0.00 0.00 37 1010.8
20260503220659 23 268 12.9 22.5 0.00 0.00 0.00 36 1010.8
20260503220155 23 187 16.1 27.4 0.00 0.00 0.00 35 1011.1
20260503215653 22 197 12.9 24.1 0.00 0.00 0.00 38 1011.1
20260503215149 22 208 17.7 25.7 0.00 0.00 0.00 36 1011.2
20260503214648 22 264 19.3 27.4 0.00 0.00 0.00 35 1011.2
20260503214144 22 198 16.1 24.1 0.00 0.00 0.00 35 1011.0
20260503213643 22 212 16.1 24.1 0.00 0.00 0.00 36 1011.2
20260503213139 22 194 20.9 33.8 0.00 0.00 0.00 36 1011.2
20260503212637 22 226 19.3 27.4 0.00 0.00 0.00 36 1011.3
20260503212134 22 190 6.4 16.1 0.00 0.00 0.00 38 1011.3
20260503211632 22 252 11.3 29.0 0.00 0.00 0.00 37 1011.4
20260503211127 22 231 9.7 29.0 0.00 0.00 0.00 37 1011.3
20260503210624 22 226 12.9 25.7 0.00 0.00 0.00 35 1011.5
20260503210120 22 237 9.7 17.7 0.00 0.00 0.00 37 1011.7
20260503205616 22 239 9.7 29.0 0.00 0.00 0.00 37 1011.8
20260503205112 22 210 16.1 30.6 0.00 0.00 0.00 36 1011.9
20260503204609 22 213 16.1 22.5 0.00 0.00 0.00 36 1012.0
20260503204107 22 237 14.5 29.0 0.00 0.00 0.00 36 1012.2
20260503203604 21 210 20.9 29.0 0.00 0.00 0.00 35 1012.3
20260503203101 21 177 9.7 33.8 0.00 0.00 0.00 36 1012.3
20260503202558 21 211 19.3 37.0 0.00 0.00 0.00 34 1012.5
20260503202056 21 210 20.9 25.7 0.00 0.00 0.00 36 1012.4
20260503201554 21 263 9.7 16.1 0.00 0.00 0.00 39 1012.6
20260503201051 21 201 14.5 30.6 0.00 0.00 0.00 41 1012.7
20260503200547 21 226 20.9 27.4 0.00 0.00 0.00 36 1012.9
20260503200044 21 238 14.5 22.5 0.00 0.00 0.00 36 1013.1
20260503195541 21 242 12.9 22.5 0.00 0.00 0.00 38 1013.1
20260503195038 21 185 14.5 20.9 0.00 0.00 0.00 38 1013.5
20260503194535 21 304 19.3 24.1 0.00 0.00 0.00 36 1013.4
20260503194035 21 219 12.9 27.4 0.00 0.00 0.00 37 1013.5
20260503193532 21 237 27.4 33.8 0.00 0.00 0.00 36 1013.8
20260503193027 21 234 11.3 27.4 0.00 0.00 0.00 40 1013.6
20260503192523 21 205 20.9 33.8 0.00 0.00 0.00 38 1013.9
20260503192019 20 196 11.3 17.7 0.00 0.00 0.00 40 1014.1
20260503191516 20 232 16.1 41.8 0.00 0.00 0.00 36 1014.3
20260503191013 20 178 17.7 24.1 0.00 0.00 0.00 36 1014.2
20260503190510 20 210 19.3 29.0 0.00 0.00 0.00 39 1014.5
20260503190008 20 209 22.5 35.4 0.00 0.00 0.00 37 1014.6
20260503185504 20 209 17.7 38.6 0.00 0.00 0.00 38 1014.6
20260503185003 20 242 17.7 24.1 0.00 0.00 0.00 39 1014.8
20260503184500 20 209 16.1 17.7 0.00 0.00 0.00 39 1015.0
20260503183956 20 71 24.1 30.6 0.00 0.00 0.00 38 1015.1
20260503183453 20 207 19.3 24.1 0.00 0.00 0.00 41 1015.2
20260503182950 19 221 12.9 24.1 0.00 0.00 0.00 42 1015.6
20260503182449 19 205 19.3 27.4 0.00 0.00 0.00 39 1015.8
20260503181946 19 138 19.3 37.0 0.00 0.00 0.00 40 1015.7
20260503181443 19 227 14.5 24.1 0.00 0.00 0.00 41 1016.1
20260503180939 19 216 19.3 24.1 0.00 0.00 0.00 42 1016.2
20260503180437 18 198 14.5 30.6 0.00 0.00 0.00 43 1015.9
20260503175934 18 213 19.3 35.4 0.00 0.00 0.00 42 1016.2
20260503175432 18 182 22.5 33.8 0.00 0.00 0.00 42 1016.5
20260503174927 18 234 17.7 35.4 0.00 0.00 0.00 41 1016.5
20260503174426 18 239 17.7 37.0 0.00 0.00 0.00 43 1016.5
20260503173925 18 211 17.7 29.0 0.00 0.00 0.00 43 1016.8
20260503173422 18 240 24.1 35.4 0.00 0.00 0.00 42 1017.0
20260503172919 18 201 16.1 25.7 0.00 0.00 0.00 44 1017.0
20260503172416 17 247 17.7 22.5 0.00 0.00 0.00 46 1017.2
20260503171913 17 212 20.9 33.8 0.00 0.00 0.00 45 1017.3
20260503171410 17 239 16.1 29.0 0.00 0.00 0.00 45 1017.4
20260503170907 17 264 14.5 22.5 0.00 0.00 0.00 44 1017.6
20260503170403 17 233 17.7 29.0 0.00 0.00 0.00 46 1017.8